Tracking 19638 objects as of 20-Apr-2019
HD Live streaming from Space Station
objects crossing your sky now

FENGYUN 1C DEB

Track FENGYUN 1C DEB now!
10-day predictions


NORAD ID: 30306
Int'l Code: 1999-025ZT
Perigee: 743.9 km
Apogee: 940.3 km
Inclination: 98.8 °
Period: 101.6 minutes
Semi major axis: 7213 km
RCS: 0.0194 m2 (small)
Launch date: May 10, 1999
Source: People's Republic of China (PRC)
Launch site: Taiyaun Space Center, China (TSC)

Note: This is SATELLITE DEBRIS
aabbcc
Your satellite tracking list
Your tracking list is empty




NASA's NSSDC Master Catalog

Two Line Element Set (TLE):
1 30306U 99025ZT  19109.62238156  .00000516  00000-0  25322-3 0  9999
2 30306  98.8019 158.8559 0136169 163.9726 196.5822 14.17159284632118
Source of the keplerian elements: AFSPC